www.pogodaiklimat.ru

Погода и климат >> Архив погоды >> Аргентина >> Сан-Фернандо-дель-Валье-де-Катамарка


ПОГОДА в Сан-Фернандо-дель-Валье-де-Катамарке

  • Прогноз погоды в Сан-Фернандо-дель-Валье-де-Катамарке
  • Монитор погоды в Сан-Фернандо-дель-Валье-де-Катамарке

АРХИВ ПОГОДЫ в Сан-Фернандо-дель-Валье-де-Катамарке

Время (UTC), дата Ветер
(напр.,м/с)
 
Видим.   Явления Облачность Т
(С)
Тd
(С)
f
(%)
Тe
(С)
Тes
(С)
Комфортность P
(гПа)
Po
(гПа)
Тmin
(С)
Tmax
(С)
R
(мм)
R24
(мм)
S
(см)
09 16.02 СВ 9 20 км ясно +22.6 +16.2 67 +27 +27 душно 1010.2 959.7
12 16.02 С 7 20 км ясно +24.4 +16.5 61 +28 +29 душно 1011.8 961.0 +21.8 +28.2
15 16.02 штиль 0 50 км ?/? +28.8 +16.3 47 +32 +32 душно 1011.3 960.6
18 16.02 В 2 20 км ясно +33.0 +16.0 36 +36 +53 опасность
солнечного
удара
1008.0 957.8
21 16.02 С 7 20 км 1/1 1500 м
[Sc]
+33.0 +14.7 33 +35 +35 душно 1005.8 955.6
00 17.02 СВ 7 20 км ясно +27.5 +15.6 48 +30 +30 жарко 1007.7 957.0 +21.6 +34.2
03 17.02 СВ 5 20 км ясно +25.9 +16.3 55 +29 +29 душно 1008.9 958.5
06 17.02 СВ 6 20 км ясно +24.2 +15.9 60 +27 +27 жарко 1008.0 957.8
09 17.02 С 6 20 км ясно +22.2 +15.4 65 +26 +26 душно 1007.0 956.6
12 17.02 С 8 20 км ясно +25.0 +16.3 58 +28 +29 жарко 1008.7 958.1 +21.6 +27.6
15 17.02 С 8 20 км ясно +28.8 +16.3 47 +32 +35 душно 1007.7 957.4
18 17.02 С 8 20 км ясно +33.2 +15.9 35 +36 +38 очень
душно
1004.8 954.8
21 17.02 С 9 20 км ясно +33.0 +13.4 31 +34 +34 очень
жарко
1002.3 952.2
00 18.02 С 9 20 км ясно +27.8 +15.4 47 +31 +31 душно 1003.4 953.0 +24.8 +34.5
03 18.02 С 9 20 км ясно +26.7 +16.1 52 +30 +30 душно 1004.3 954.2
06 18.02 С 10 20 км пыльный позёмок 1/1 1200 м
[Sc diur, vesp]
+26.2 +16.8 56 +30 +30 душно 1002.1 952.4
09 18.02 С 9 20 км пыльный позёмок ясно +25.6 +16.5 57 +29 +29 душно 1001.6 951.8
12 18.02 С 5 20 км ясно +27.0 +16.7 53 +31 +33 душно 1003.7 953.6 +24.3 +27.8
15 18.02 ЮЗ 1 20 км 1/1 1350 м
[Sc]
+31.5 +18.1 45 +36 +55 опасность
солнечного
удара
1003.7 953.8
18 18.02 Ю 3 20 км 3/3 1500 м
[Sc diur, vesp]
+34.2 +19.1 41 +39 +49 очень
душно
1002.0 952.4
21 18.02 С 6 20 км 3/1 1440 м
[Sc diur, vesp Cs]
+35.4 +17.7 35 +39 +40 очень
душно
999.6 950.2
00 19.02 С 5 20 км 1/0
[Ac As]
+29.3 +17.3 48 +33 +33 душно 1002.6 952.6 +27.0 +36.0
03 19.02 С 6 20 км ясно +26.8 +17.9 58 +31 +31 душно 1003.9 954.0
06 19.02 С 5 20 км ясно +25.4 +17.7 62 +30 +30 душно 1003.6 953.8
09 19.02 С 2 20 км ясно +24.0 +17.1 65 +28 +28 душно 1003.8 954.0
12 19.02 С 6 20 км ясно +26.6 +18.0 59 +31 +33 душно 1005.5 955.4 +23.2 +29.6
15 19.02 ЮЗ 2 20 км 1/1 1500 м
[Cu med, cong]
+33.8 +19.7 44 +40 +56 опасность
солнечного
удара
1005.0 955.3
18 19.02 СЗ 2 20 км 4/4 1500 м
[Cu med, cong]
+37.0 +16.7 30 +39 +49 очень
душно
1002.1 952.6
21 19.02 С 7 20 км 4/1 1500 м
[Sc Cs]
+36.8 +18.1 33 +40 +41 очень
душно
999.7 950.2
00 20.02 С 6 20 км 3/0
[Cs]
+31.2 +17.9 45 +35 +35 очень
душно
1001.6 951.8 +26.4 +37.4
03 20.02 С 5 20 км 6/0
[Cs]
+29.6 +19.1 53 +35 +35 очень
душно
1003.0 953.6
06 20.02 С 8 20 км 4/0
[Cs]
+27.8 +18.4 57 +33 +33 очень
душно
1002.5 953.2
09 20.02 С 7 20 км 4/0
[Cs]
+28.2 +19.5 59 +34 +34 очень
душно
1002.3 953.0
12 20.02 С 6 20 км ясно +29.8 +20.1 56 +36 +38 очень
душно
1003.4 953.8 +25.9 +31.5
15 20.02 С 10 20 км 1/0
[Ac cast]
+34.6 +18.6 39 +39 +40 очень
душно
1002.6 953.3
18 20.02 С 12 20 км 3/3 1500 м
[Sc Ac cuf]
+36.6 +17.8 33 +40 +40 очень
душно
999.9 950.8
21 20.02 С 14 15 км пыльный позёмок ясно +35.0 +17.9 36 +39 +39 очень
душно
997.7 948.5
00 21.02 С 12 15 км зарница 3/1 1500 м
[Cb cap Cs]
+31.4 +20.6 53 +38 +38 очень
душно
999.2 949.8 +29.8 +37.0
03 21.02 С 8 20 км 1/0
[Cs]
+31.2 +18.2 46 +36 +36 очень
душно
999.9 950.8
06 21.02 С 10 20 км ясно +30.0 +18.9 51 +35 +35 очень
душно
999.3 950.2
09 21.02 С 11 20 км ясно +29.2 +19.4 56 +35 +35 очень
душно
999.4 950.4
12 21.02 С 10 20 км ясно +30.7 +18.9 49 +36 +36 очень
душно
1001.2 951.8 +28.3 +31.6
15 21.02 С 11 20 км ясно +35.0 +19.1 39 +40 +40 очень
душно
1001.6 952.5
18 21.02 С 12 20 км 1/1 2000 м
[Cu med, cong]
+37.4 +17.3 31 +40 +40 очень
душно
1000.4 951.4
21 21.02 С 14 20 км 1/1 2000 м
[Sc diur, vesp]
+35.6 +19.3 38 +40 +40 очень
душно
998.8 949.7
00 22.02 С 11 15 км пыльный позёмок ясно +32.8 +20.6 49 +40 +40 очень
душно
999.9 950.6 +28.6 +37.8
03 22.02 С 8 20 км ясно +31.9 +18.9 46 +37 +37 очень
душно
1001.1 952.0
06 22.02 С 8 20 км ясно +31.2 +19.3 49 +37 +37 очень
душно
1000.3 951.4
09 22.02 СЗ 1 20 км ясно +26.7 +20.3 68 +33 +33 очень
душно
1001.1 951.7
12 22.02 С 3 20 км ясно +30.8 +21.6 58 +39 +43 очень
душно
1002.9 953.4 +26.3 +33.0
15 22.02 С 1 20 км ясно +35.2 +21.5 45 +43 +63 опасность
перегрева
1002.4 953.3
18 22.02 В 3 20 км 1/1 1500 м
[Cu med, cong]
+39.2 +19.5 32 +44 +58 опасность
перегрева
1000.0 951.3
21 22.02 С 8 20 км 1/1 1500 м
[Sc Ci fib]
+39.6 +14.1 22 +40 +41 очень
душно
998.6 949.6
00 23.02 С 7 20 км ясно +33.8 +20.8 47 +41 +41 опасность
перегрева
1000.4 951.2 +30.8 +40.7
03 23.02 С 6 20 км 1/0
[Ac As]
+31.4 +20.3 52 +38 +38 очень
душно
1001.3 952.2

 

Местоположение метеостанции Сан-Фернандо-дель-Валье-де-Катамарка (Аргентина): широта -28.60 долгота -65.76 высота над уровнем моря 454 м.

В архиве по умолчанию представлена погода в Сан-Фернандо-дель-Валье-де-Катамарке за последнюю неделю. Архивные данные за месяц целиком и за предыдущие месяцы, начиная с января 2011 года, Вы можете получить, выбрав интересующий диапазон дат из раскрывающегося списка и нажав кнопку "Ввод!".


*Определитесь, кто Вы:
робот инопланетянин человек

Внимание! Время в таблицах - всемирное. Для получения местного времени необходимо прибавить поправку, которая равна -3 ч.

Смотрите также архив погоды в соседних городах и на ближайших метеорологических станциях:

Погода в Ла-Риохе (Аргентина) (134 км)
Погода в Сантьяго-дель-Эстеро (Аргентина) (171 км)
Погода в Чамикале (Аргентина) (202 км)
Погода в Сан-Мигель-де-Тукумане (Аргентина) (206 км)
Погода в Вилла де Мария дель Рио Секо (Аргентина) (248 км)
Погода в Кордове (Аргентина) (336 км)
Погода в Вилла Долорес (Аргентина) (377 км)
Погода в Пиларе (Аргентина) (385 км)
Погода в Сересе (Аргентина) (396 км)
Погода в Сан-Хуане (Аргентина) (403 км)

Пояснения к столбцам:

Ветер - указаны скорость ветра в м/с - средняя за 10 мин, порывы в срок и между сроками (в фигурных скобках) и направление, откуда дует ветер: С - северный, СВ - северо-восточный, В - восточный, ЮВ - юго-восточный, Ю - южный, ЮЗ - юго-западный, З - западный, СЗ - северо-западный.
Видимость - горизонтальная дальность видимости в метрах или километрах. При видимости от 1 до 10 км при отсутствии осадков обычно наблюдается дымка, при ухудшении видимости до 1 км и менее - туман. В сухую погоду видимость может ухудшаться дымом, пылью или мглою.
Явления - указаны атмосферные явления, наблюдавшиеся в срок или в последний час перед сроком; фигурными скобками обозначены явления, наблюдавшиеся между сроками (за 1-3 часа до срока); квадратными скобками обозначены град или гололедные отложения с указанием их диаметра в мм.
Облачность - указаны через наклонную черту общая и нижняя облачность в баллах и высота нижней границы облаков в метрах; квадратными скобками обозначены формы облаков: Ci - перистые, Cs - перисто-слоистые, Cc - перисто-кучевые, Ac - высококучевые, As - высокослоистые, Sc - слоисто-кучевые, Ns - слоисто-дождевые, Cu - кучевые, Cb - кучево-дождевые. Подробнее классификацию облаков см. в Атласе облаков (PDF).
T - Температура воздуха - температура, измеренная на высоте 2 м над землей.
Td - Температура точки росы - температура, при понижении до которой содержащийся в воздухе водяной пар достигнет насыщения.
f - Относительная влажность воздуха - влажноcть воздуха, измеренная на высоте 2 м над землей.
Te - Эффективная температура - температура, которую ощущает одетый по сезону человек в тени. Характеристика душности погоды. При расчете учитывается влияние влажности воздуха и скорости ветра на теплоощущения человека.
Tes - Эффективная температура на солнце - температура, которую ощущает человек, с поправкой на солнечный нагрев. Характеристика знойности погоды. Зависит от высоты солнца над горизонтом, облачности и скорости ветра. Ночью, в пасмурную погоду, а также при ветре 12 м/с и более поправка равна нулю.
P - Атмосферное давление - приведенное к уровню моря атмосферное давление.
Po - Атмосферное давление - измеренное на уровне метеостанции атмосферное давление.
Tmin - Минимальная температура - минимум температуры воздуха на высоте 2 м над землей.
Tmax - Максимальная температура - максимум температуры воздуха на высоте 2 м над землей.
R - Количество осадков - Количество выпавших осадков за период времени, мм. При наведении курсора мыши на число - период времени, за который выпало указанное количество осадков.
R24 - Количество осадков - Количество выпавших осадков за 24 часа, мм.
S - Снежный покров - Высота снежного покрова, см. При наведении курсора мыши на число - состояние снежного покрова и степень покрытия местности в баллах.